#timestamp,LO_Frequency,Hit 
1499986815.5,286047167.8,N
1499986835.3,286047170.5,N
1499986855.1,286047167.7,N
1499986875.9,286047168.5,N
1499986895.7,286047168.6,N
1499986915.5,286047168.4,N
1499986935.3,286047167.9,N
1499986955.2,286047171.9,N
1499986975.0,286047173.6,N
1499986975.9,286047173.6,N
1499986995.7,286047171.4,N
1499987015.6,286047171.4,N
1499987035.4,286047169.8,N
1499987055.2,286047164.6,N
1499987075.1,286047165.6,N
1499987076.0,286047165.6,N
1499987095.8,286047163.1,N
1499987115.6,286047163.4,N
1499987135.5,286047165.9,N
1499987155.3,286047164.5,N
1499987175.1,286047168.2,N
1499987195.9,286047168.4,N
1499987215.7,286047166.3,N
1499987235.5,286047167.7,N
1499987255.4,286047170.1,N
1499987275.2,286047170.8,N
1499987295.0,286047171.4,N
1499987295.9,286047171.4,N
1499987315.7,286047170.9,N
1499987335.6,286047172.7,N
1499987355.4,286047171.1,N
1499987375.2,286047171.8,N
1499987395.1,286047171.2,N
1499987396.0,286047171.2,N
1499987415.8,286047173.6,N
1499987435.6,286047173.0,N
1499987455.5,286047174.9,N
1499987475.3,286047174.6,N
1499987495.1,286047176.9,N
1499987515.9,286047177.0,N
1499987535.7,286047176.5,N
1499987555.5,286047178.3,N
1499987575.4,286047177.6,N
1499987595.2,286047178.2,N
1499987615.0,286047178.7,N
1499987615.9,286047178.7,N
1499987635.8,286047176.6,N
1499987655.6,286047176.8,N
1499987675.4,286047174.8,N
1499987695.3,286047173.3,N
1499987715.1,286047171.2,N
1499987716.0,286047171.2,N
1499987735.8,286047172.0,N
1499987755.7,286047171.6,N
1499987775.5,286047172.9,N
1499987795.3,286047173.1,N
1499987815.1,286047175.5,N
1499987835.9,286047172.9,N
1499987855.7,286047173.1,N
1499987875.5,286047170.9,N
1499987895.4,286047171.3,N
1499987915.2,286047171.7,N
1499987935.0,286047175.3,N
1499987935.9,286047175.3,N
1499987955.8,286047173.8,N
1499987975.6,286047171.2,N
1499987995.4,286047173.8,N
1499988015.3,286047175.2,N
1499988035.1,286047172.9,N
1499988036.0,286047172.9,N
1499988055.8,286047170.9,N
1499988075.7,286047171.5,N
1499988095.5,286047174.3,N
1499988115.3,286047175.0,N
1499988135.2,286047172.7,N
1499988155.9,286047174.5,N
1499988175.7,286047175.2,N
1499988195.5,286047175.5,N
1499988215.4,286047174.4,N
1499988235.2,286047176.4,N
1499988255.0,286047178.6,N
1499988255.9,286047178.6,N
1499988275.8,286047178.0,N
1499988295.6,286047179.9,N
1499988315.4,286047178.8,N
1499988335.3,286047176.2,N
1499988355.1,286047175.7,N
1499988375.8,286047175.7,N
1499988395.7,286047178.2,N
1499988415.5,286047176.2,N
1499988435.3,286047178.5,N
1499988455.2,286047176.1,N
1499988475.9,286047178.5,N
1499988495.7,286047178.1,N
1499988515.6,286047179.7,N
1499988535.4,286047179.7,N
1499988555.2,286047179.9,N
1499988575.1,286047178.3,N
1499988576.0,286047178.3,N
1499988595.8,286047179.5,N
1499988615.6,286047181.8,N
1499988635.5,286047183.4,N
1499988655.3,286047182.6,N
1499988675.1,286047182.8,N
1499988695.8,286047181.4,N
1499988715.7,286047183.2,N
1499988735.5,286047184.8,N
1499988755.3,286047183.6,N
1499988775.2,286047181.8,N
1499988795.0,286047181.0,N
1499988795.9,286047181.0,N
1499988815.7,286047180.8,N
1499988835.6,286047180.8,N
1499988855.4,286047183.6,N
1499988875.2,286047184.1,N
1499988895.1,286047185.5,N
1499988896.0,286047185.5,N
1499988915.8,286047184.2,N
1499988935.6,286047184.7,N
1499988955.5,286047182.1,N
1499988975.3,286047183.3,N
1499988995.1,286047183.6,N
1499989015.9,286047183.3,N
1499989035.7,286047185.2,N
1499989055.5,286047182.3,N
1499989075.4,286047183.2,N
1499989095.2,286047182.4,N
1499989115.0,286047180.7,N
1499989115.9,286047180.7,N
1499989135.8,286047184.8,N
1499989155.6,286047184.8,N
1499989175.4,286047186.4,N
1499989195.2,286047188.0,N
1499989215.1,286047186.8,N
1499989216.0,286047186.8,N
1499989235.8,286047185.1,N
1499989255.6,286047183.9,N
1499989275.5,286047187.8,N
1499989295.3,286047187.7,N
1499989315.1,286047185.9,N
1499989335.9,286047188.4,N
1499989355.7,286047189.3,N
1499989375.5,286047189.7,N
1499989395.4,286047188.8,N
1499989415.2,286047189.6,N
1499989435.0,286047189.6,N
1499989435.9,286047189.6,N
1499989455.8,286047188.8,N
1499989475.6,286047189.7,N
1499989495.4,286047188.9,N
1499989515.2,286047190.2,N
1499989535.1,286047191.1,N
1499989536.0,286047191.1,N
1499989555.8,286047188.5,N
1499989575.7,286047191.4,N
1499989595.5,286047187.0,N
1499989615.3,286047189.6,N
1499989635.1,286047191.6,N
1499989655.9,286047187.3,N
1499989675.7,286047186.9,N
1499989695.5,286047188.5,N
1499989715.4,286047190.4,N
1499989735.2,286047190.8,N
1499989755.0,286047190.5,N
1499989755.9,286047190.5,N
1499989775.8,286047190.3,N
1499989795.6,286047192.0,N
1499989815.4,286047192.5,N
1499989835.3,286047192.3,N
1499989855.1,286047190.3,N
1499989856.0,286047190.3,N
1499989875.8,286047192.9,N
1499989895.7,286047191.9,N
1499989915.5,286047192.3,N
1499989935.3,286047194.3,N
1499989955.1,286047194.3,N
1499989975.9,286047194.5,N
1499989995.7,286047196.4,N
1499990015.5,286047193.4,N
1499990035.4,286047193.4,N
1499990055.2,286047195.2,N
1499990075.0,286047195.1,N
1499990075.9,286047195.1,N
1499990095.8,286047195.3,N
1499990115.6,286047197.4,N
1499990135.4,286047196.1,N
1499990155.3,286047197.8,N
1499990175.1,286047199.6,N
1499990176.0,286047199.6,N
1499990195.8,286047199.5,N
1499990215.7,286047197.6,N
1499990235.5,286047195.5,N
1499990255.3,286047198.0,N
1499990275.2,286047196.5,N
1499990295.9,286047200.1,N
1499990315.7,286047203.5,N
1499990335.6,286047203.7,N
1499990355.4,286047202.6,N
1499990375.2,286047203.6,N
1499990395.0,286047199.8,N
1499990396.0,286047199.8,N
